[[{"header":{"parameterUnit":"m.s-1","parameterCategory":1,"la1":30.2991,"la2":30.254,"lo1":-89.0895,"lo2":-89.0444,"dy":0.0017,"dx":0.0017,"nx":28,"ny":28,"refTime":"2024-07-28T21:00:00:Z","depth":0,"parameterNumber":2,"parameterNumberName":"U-component_of_WINDS"},"data":[0,0,0,0,0,0,0,0,0,0,0,0,0,0,0,0,0,0,0,0,0,0,0,0,0,0,0,0,0,0,0,0,0,0,0,0,0,0,0,0,0,0,0,0,0,0,0,0,0,0,0,0,0,0,0,0,0,0,2.485,2.4851,0,2.4961,2.4962,2.4963,2.4965,2.4963,2.4962,2.4961,2.5082,2.5086,2.509,0,0,0,0,0,0,0,0,0,0,0,0,0,2.4646,2.465,2.485,2.4851,2.4852,2.496,2.4962,2.4963,2.4965,2.4963,2.4962,2.496,2.508,2.5085,2.5091,0,0,0,0,0,0,0,0,0,0,0,0,0,2.4744,2.4651,2.4849,2.4866,2.4868,2.496,2.4962,2.4964,2.4965,2.4963,2.4961,2.4959,2.5078,2.5085,2.5092,2.5176,0,0,2.5112,2.5115,0,0,0,0,0,0,0,0,2.4738,2.4751,2.4862,2.4865,2.4868,2.4946,2.4935,2.5035,2.4966,2.4929,2.4961,2.4958,2.5039,2.5049,2.5074,2.5182,2.5187,2.5113,2.5117,2.512,2.5122,0,0,0,0,0,0,0,2.4731,2.4746,2.4894,2.4864,2.4867,2.487,2.4882,2.4954,2.4995,2.4932,2.4932,2.4945,2.504,2.5068,2.5077,2.5189,2.5113,2.5119,2.5123,2.5126,2.5373,2.5375,0,0,0,0,0,0,2.472,2.4741,2.489,2.4897,2.4796,2.4876,2.4888,2.4924,2.4994,2.5002,2.4947,2.4945,2.5057,2.5069,2.5082,2.5186,2.512,2.5126,2.513,2.537,2.5373,2.5376,0,0,0,0,0,0,2.4716,2.4733,2.4886,2.4819,2.4839,2.4881,2.4921,2.4927,2.4955,2.5005,2.5013,2.4967,2.5056,2.5072,2.5152,2.519,2.513,2.5136,2.5367,2.5371,2.5375,2.5395,0,0,0,0,0,0,2.471,2.4732,2.4763,2.482,2.4842,2.4953,2.4923,2.4931,2.4965,2.4964,2.5026,2.5035,2.5056,2.5142,2.5159,2.5198,2.5141,2.5364,2.5369,2.5374,2.5391,2.5399,2.5405,0,0,0,0,0,2.4703,2.4765,2.4764,2.4782,2.4881,2.4955,2.4968,2.4989,2.4968,2.5001,2.5034,2.5033,2.5183,2.515,2.517,2.5211,2.5362,2.5368,2.5373,2.5388,2.5397,2.5405,0,0,0,0,0,0,2.4714,2.4773,2.4773,2.4855,2.4899,2.4955,2.4996,2.4998,2.5051,2.5048,2.5074,2.5088,2.5168,2.5198,2.516,2.5298,2.5271,2.528,2.5275,2.5284,2.5291,2.5283,2.5147,0,0,0,0,0,2.4726,2.4778,2.4828,2.4896,2.4918,2.4953,2.4986,2.4998,2.5047,2.5066,2.5104,2.5153,2.5212,2.525,2.5306,2.5395,2.541,2.5434,2.5441,2.5446,2.5455,2.5505,2.5517,2.5394,2.5394,2.5394,0,0,2.4752,2.479,2.4822,2.49,2.4935,2.4991,2.4969,2.503,2.5072,2.5076,2.5154,2.5184,2.524,2.5325,2.5365,2.5353,2.5492,2.5453,2.5458,2.5463,2.5512,2.5524,2.5534,2.5398,2.5397,2.5397,0,0,2.4827,2.4861,2.4921,2.4957,2.5011,2.5034,2.5049,2.5104,2.5123,2.5201,2.5205,2.5258,2.5357,2.5397,2.5431,2.5521,2.5523,2.5539,2.5577,2.5626,2.5636,2.5644,2.5678,2.5689,2.5547,2.5548,2.5548,0,2.4853,2.4935,2.4953,2.5013,2.5048,2.5051,2.5114,2.5149,2.522,2.5245,2.523,2.5355,2.5393,2.5488,2.551,2.5537,2.5556,2.5533,2.5632,2.5641,2.565,2.5682,2.5694,2.5549,2.5549,2.5549,2.5549,0,2.4964,2.5021,2.5064,2.513,2.5169,2.5231,2.526,2.5299,2.5308,2.5333,2.5413,2.5459,2.5525,2.5548,2.5559,2.5645,2.5636,2.5626,2.56,2.5663,2.5693,2.5706,2.5552,2.5551,2.555,2.555,0,0,2.505,2.5124,2.514,2.517,2.523,2.5276,2.5338,2.54,2.5433,2.5482,2.5536,2.562,2.5611,2.5649,2.5664,2.5707,2.5777,2.5692,2.5694,2.5707,2.5877,2.5884,2.5897,2.5778,2.578,2.5782,2.5872,0,2.5133,2.524,2.5259,2.5355,2.5408,2.5413,2.5468,2.5512,2.5537,2.5588,2.5618,2.5677,2.566,2.5683,2.5726,2.5759,2.5811,2.5753,2.5831,2.5833,2.5816,2.5913,2.5921,2.6004,2.5884,2.5886,2.5888,0,2.5243,2.5292,2.5392,2.5445,2.5468,2.5517,2.5575,2.5624,2.5674,2.569,2.5732,2.5742,2.5809,2.5779,2.5873,2.5833,2.5866,2.5887,2.5891,2.5899,2.5864,2.5925,2.603,2.6043,2.5907,2.5905,2.5904,0,2.5296,2.5388,2.546,2.5485,2.5548,2.5583,2.5611,2.5659,2.5695,2.5748,2.5772,2.5832,2.5866,2.5913,2.594,2.5915,2.6033,2.6004,2.6049,2.6049,2.6074,2.6072,2.6186,2.6094,2.6094,2.6094,2.6094,0,2.5387,2.5448,2.5485,2.5529,2.5598,2.562,2.5689,2.5717,2.576,2.5812,2.582,2.5869,2.5901,2.5955,2.5977,2.6052,2.6067,2.6083,2.6088,2.6082,2.608,2.6105,2.61,2.6097,2.6097,2.6096,2.6095,0,2.5458,2.5485,2.5564,2.5616,2.5631,2.568,2.5727,2.5771,2.5796,2.5861,2.5878,2.5919,2.5983,2.6013,2.6094,2.6108,2.6194,2.6195,2.6176,2.6178,2.6221,2.6217,2.6356,2.6375,2.6269,2.627,2.6271,0,2.5514,2.5561,2.5619,2.5652,2.5681,2.5736,2.5772,2.5796,2.5835,2.5896,2.5933,2.5997,2.6049,2.6152,2.619,2.6251,2.6254,2.6299,2.6264,2.6257,2.6256,2.6253,2.6258,2.6305,2.6306,2.6307,2.6308,0,2.5611,2.5622,2.5673,2.5729,2.5772,2.5818,2.5863,2.5891,2.5923,2.5966,2.603,2.607,2.6151,2.6215,2.6279,2.6311,2.6316,2.6318,2.6332,2.6327,2.6314,2.6322,2.6193,2.6315,2.6315,2.6314,2.6314,2.6313,2.5677,2.5719,2.5766,2.5823,2.5859,2.5901,2.5945,2.5975,2.6028,2.6094,2.6106,2.6174,2.6225,2.6311,2.6345,2.6401,2.6391,2.6411,2.6416,2.6421,2.6423,2.6304,2.6413,2.6412,2.6412,2.6412,2.6412,0,2.5775,2.5805,2.5857,2.5919,2.5964,2.5962,2.6012,2.6051,2.611,2.6156,2.6207,2.6281,2.6343,2.6385,2.6449,2.6485,2.6489,2.6501,2.6499,2.6507,2.6428,2.641,2.6497,2.6497,2.6497,2.6497,2.6497,2.6497,2.5831,2.5902,2.5918,2.6008,2.6039,2.6104,2.6133,2.6173,2.6209,2.6291,2.6341,2.6368,2.6413,2.648,2.6537,2.6548,2.6572,2.6584,2.6595,2.6521,2.6512,2.6504,2.6487,2.6589,2.6589,2.6669,2.667,2.667]},{"header":{"parameterUnit":"m.s-1","parameterCategory":1,"la1":30.2991,"la2":30.254,"lo1":-89.0895,"lo2":-89.0444,"dy":0.0017,"dx":0.0017,"nx":28,"ny":28,"refTime":"2024-07-28T21:00:00:Z","depth":0,"parameterNumber":3,"parameterNumberName":"V-component_of_WINDS"},"data":[0,0,0,0,0,0,0,0,0,0,0,0,0,0,0,0,0,0,0,0,0,0,0,0,0,0,0,0,0,0,0,0,0,0,0,0,0,0,0,0,0,0,0,0,0,0,0,0,0,0,0,0,0,0,0,0,0,0,1.9813,1.9813,0,1.9803,1.9803,1.9802,1.9791,1.9791,1.9791,1.9791,1.9777,1.9777,1.9777,0,0,0,0,0,0,0,0,0,0,0,0,0,1.9819,1.9819,1.9813,1.9813,1.9813,1.9803,1.9803,1.9802,1.9791,1.9791,1.9791,1.9791,1.9777,1.9777,1.9777,0,0,0,0,0,0,0,0,0,0,0,0,0,1.9813,1.9819,1.9813,1.9806,1.9806,1.9803,1.9803,1.9802,1.9791,1.9791,1.9791,1.9791,1.9778,1.9777,1.9777,1.9779,0,0,1.9776,1.9776,0,0,0,0,0,0,0,0,1.9814,1.9813,1.9807,1.9807,1.9806,1.9798,1.98,1.9794,1.9792,1.9797,1.9791,1.9791,1.9784,1.9783,1.9782,1.9778,1.9778,1.9776,1.9776,1.9775,1.9775,0,0,0,0,0,0,0,1.9814,1.9813,1.9809,1.9807,1.9806,1.9802,1.9801,1.9798,1.9792,1.9796,1.9795,1.9795,1.9784,1.9782,1.9781,1.9778,1.9776,1.9775,1.9775,1.9775,1.9772,1.9772,0,0,0,0,0,0,1.9816,1.9814,1.9809,1.9809,1.9809,1.9802,1.9801,1.9801,1.9792,1.979,1.9795,1.9794,1.9783,1.9782,1.9781,1.9781,1.9775,1.9775,1.9775,1.9772,1.9772,1.9772,0,0,0,0,0,0,1.9816,1.9816,1.981,1.9811,1.981,1.9802,1.9802,1.9801,1.9799,1.9791,1.9789,1.9795,1.9783,1.9781,1.9779,1.978,1.9775,1.9775,1.9771,1.9772,1.9772,1.9782,0,0,0,0,0,0,1.9816,1.9816,1.9818,1.9811,1.981,1.981,1.9802,1.9801,1.9799,1.9798,1.979,1.9789,1.9782,1.978,1.9779,1.978,1.9774,1.9771,1.9772,1.9772,1.9781,1.9782,1.9783,0,0,0,0,0,1.9817,1.9821,1.9818,1.9818,1.9813,1.981,1.9809,1.9803,1.9799,1.98,1.9794,1.9789,1.978,1.9779,1.9778,1.9779,1.9771,1.9771,1.9772,1.9781,1.9782,1.9783,0,0,0,0,0,0,1.9828,1.982,1.9817,1.982,1.9815,1.9808,1.9809,1.9804,1.9801,1.98,1.9791,1.9789,1.9787,1.9783,1.9782,1.9779,1.9775,1.9775,1.9782,1.9783,1.9784,1.9785,1.9774,0,0,0,0,0,1.9831,1.9831,1.9823,1.9827,1.9825,1.9817,1.9816,1.9811,1.9806,1.9804,1.9798,1.9792,1.9788,1.9785,1.9781,1.978,1.9777,1.978,1.9781,1.9782,1.9782,1.9778,1.9779,1.9773,1.9773,1.9773,0,0,1.9837,1.9833,1.9833,1.9829,1.9825,1.9823,1.9816,1.9815,1.9813,1.9804,1.9801,1.9796,1.9788,1.9786,1.9785,1.9783,1.9782,1.9782,1.9783,1.9782,1.9779,1.9779,1.978,1.9773,1.9773,1.9773,0,0,1.9847,1.9845,1.9846,1.9842,1.9836,1.983,1.9831,1.9823,1.982,1.9817,1.9809,1.9805,1.9799,1.9793,1.9789,1.9794,1.9788,1.9792,1.9797,1.9794,1.9794,1.9794,1.9794,1.9794,1.9792,1.9792,1.9792,0,1.9855,1.9853,1.9847,1.9845,1.9842,1.9834,1.9834,1.983,1.9823,1.982,1.9817,1.9807,1.9802,1.9797,1.9798,1.9796,1.9793,1.9793,1.9795,1.9795,1.9795,1.9795,1.9795,1.9793,1.9793,1.9793,1.9793,0,1.9862,1.986,1.9862,1.9855,1.9852,1.9852,1.9843,1.9841,1.9835,1.9829,1.9825,1.9818,1.9811,1.9809,1.9804,1.9802,1.9801,1.9797,1.9792,1.9796,1.9796,1.9796,1.9794,1.9793,1.9793,1.9793,0,0,1.988,1.9868,1.9869,1.9864,1.9856,1.9854,1.9851,1.9845,1.9842,1.9836,1.9833,1.9826,1.9821,1.9817,1.9811,1.9808,1.9809,1.9804,1.9803,1.9804,1.9804,1.9806,1.9807,1.9805,1.9805,1.9805,1.9804,0,1.9887,1.9884,1.9877,1.9875,1.9872,1.9862,1.9859,1.9853,1.9847,1.9842,1.9834,1.9829,1.9824,1.9821,1.9818,1.981,1.9809,1.981,1.9799,1.9799,1.9801,1.9807,1.981,1.981,1.9804,1.9804,1.9804,0,1.9896,1.9891,1.9889,1.9878,1.9876,1.9875,1.9866,1.9863,1.9854,1.9849,1.9843,1.9836,1.983,1.9826,1.9817,1.9818,1.9812,1.9807,1.9807,1.9805,1.9801,1.9804,1.981,1.9809,1.9804,1.9804,1.9804,0,1.9907,1.99,1.9897,1.9893,1.9882,1.988,1.9875,1.9866,1.9861,1.9854,1.985,1.9842,1.9837,1.983,1.9819,1.9818,1.981,1.9806,1.9804,1.9805,1.9803,1.9804,1.9807,1.9802,1.9802,1.9802,1.9802,0,1.9916,1.9914,1.9901,1.99,1.9896,1.9887,1.9884,1.9877,1.9869,1.9864,1.9855,1.985,1.9837,1.983,1.9822,1.9814,1.9812,1.9807,1.9805,1.9807,1.9808,1.9804,1.9803,1.9802,1.9802,1.9802,1.9802,0,1.9928,1.992,1.9915,1.9904,1.9901,1.9899,1.9888,1.9885,1.9877,1.9871,1.9869,1.9856,1.9847,1.9836,1.9824,1.9818,1.981,1.9808,1.9814,1.9812,1.9811,1.9811,1.9812,1.9811,1.9807,1.9807,1.9807,0,1.9934,1.9932,1.992,1.9916,1.9912,1.9906,1.9901,1.9891,1.9886,1.9874,1.9871,1.9862,1.9854,1.9839,1.9828,1.9817,1.9813,1.9814,1.9812,1.9814,1.9812,1.9812,1.981,1.9815,1.9815,1.9815,1.9815,0,1.9944,1.9939,1.9933,1.9925,1.992,1.9913,1.9905,1.9902,1.989,1.9884,1.9875,1.9869,1.9855,1.9845,1.9832,1.9825,1.9817,1.9816,1.9815,1.9817,1.9821,1.9817,1.9815,1.9816,1.9816,1.9816,1.9816,1.9816,1.9952,1.9949,1.994,1.9932,1.9926,1.9918,1.9914,1.9905,1.9898,1.9887,1.988,1.9871,1.9859,1.9842,1.9834,1.9825,1.9822,1.9821,1.9821,1.982,1.982,1.9822,1.9823,1.9823,1.9823,1.9823,1.9823,0,1.996,1.9953,1.9947,1.9936,1.993,1.9924,1.9914,1.9909,1.9901,1.9891,1.9883,1.9871,1.986,1.9848,1.9836,1.983,1.9826,1.9827,1.9827,1.9825,1.9824,1.9826,1.9831,1.9831,1.9831,1.9831,1.9831,1.9831,1.9963,1.9958,1.9952,1.9941,1.9934,1.9925,1.992,1.9912,1.9904,1.9892,1.9883,1.9875,1.9863,1.985,1.9839,1.9835,1.983,1.9832,1.9827,1.9826,1.9826,1.9825,1.9826,1.9831,1.9831,1.9829,1.9829,1.9829]}]]